Train No Train Name From To Distance Stops avg_speed (km/hr)
19666 Udaipur - Khajuraho Express Udaipur City Khajuraho 1092 27 51
A Train's "Departure" Station, "Arrival" Station and "Distance" may vary. Although we have verified some of this data from enquiry.indianrail.gov.in
Train No Start Date (yyyy-mm-dd) Status Delay Time Source
19666 2017-01-01 Late 26 hours 56 minutes Source
19666 2017-01-02 Late 36 hours 55 minutes Source
19666 2017-01-03 Late 36 hours 01 minutes Source
19666 2017-01-08 Late 24 hours 08 minutes Source
19666 2017-01-15 Late 24 hours 53 minutes Source
19666 2017-01-19 Late 22 hours 07 minutes Source
19666 2017-01-20 Late 34 hours 54 minutes Source
19666 2017-01-22 Late 37 hours 08 minutes Source
19666 2017-01-30 Late 24 hours 06 minutes Source
19666 2017-01-31 Late 19 hours 18 minutes Source
19666 2017-02-03 Late 15 hours 15 minutes Source
19666 2017-02-07 Late 19 hours 27 minutes Source
19666 2017-02-09 Late 23 hours 27 minutes Source
19666 2017-02-10 Late 23 hours 18 minutes Source
19666 2017-02-11 Late 22 hours 18 minutes Source
19666 2017-02-13 Late 15 hours 48 minutes Source
19666 2017-03-07 Late 42 hours 13 minutes Source
19666 2017-03-08 Late 49 hours 02 minutes Source
19666 2017-03-10 Late 24 hours 30 minutes Source
19666 2017-03-11 Late 23 hours 39 minutes Source
19666 2017-03-24 Late 20 hours 38 minutes Source
19666 2017-04-04 Late 19 hours 45 minutes Source
19666 2017-04-21 Late 23 hours 31 minutes Source
19666 2017-04-25 Late 37 hours 39 minutes Source
19666 2017-04-26 Late 19 hours 27 minutes Source
Page 1 of 1, showing 25 records out of 25 total